Time,TemperatureF,DewpointF,PressureIn,WindDirection,WindDirectionDegrees,WindSpeedMPH,WindSpeedGustMPH,Humidity,HourlyPrecipIn,Conditions,Clouds,dailyrainin,SoftwareType,DateUTC
2013-01-14 00:11:00,27.0,21.0,30.00,West,260,16.0,25.0,79,0.00,,,-99.99,,2013-01-14 05:11:00,
2013-01-14 00:22:00,27.0,21.0,30.02,West,280,13.0,22.0,79,0.00,,,-99.99,,2013-01-14 05:22:00,
2013-01-14 00:32:00,27.0,21.0,30.02,West,280,13.0,18.0,79,0.00,,,-99.99,,2013-01-14 05:32:00,
2013-01-14 00:42:00,27.0,21.0,30.02,West,270,13.0,18.0,79,0.00,,,-99.99,,2013-01-14 05:42:00,
2013-01-14 00:52:00,27.0,21.0,30.03,WNW,290,10.0,22.0,79,0.00,,,-99.99,,2013-01-14 05:52:00,
2013-01-14 01:02:00,27.0,21.0,30.03,WNW,290,10.0,22.0,79,0.00,,,-99.99,,2013-01-14 06:02:00,
2013-01-14 01:11:00,27.0,21.0,30.03,WNW,290,9.0,21.0,79,0.00,,,-99.99,,2013-01-14 06:11:00,
2013-01-14 01:22:00,27.0,21.0,30.04,West,280,14.0,23.0,79,0.00,,,-99.99,,2013-01-14 06:22:00,
2013-01-14 01:32:00,27.0,21.0,30.05,WNW,290,16.0,21.0,79,0.00,,,-99.99,,2013-01-14 06:32:00,
2013-01-14 01:42:00,25.0,19.0,30.05,WNW,290,16.0,22.0,79,0.00,,,-99.99,,2013-01-14 06:42:00,
2013-01-14 01:52:00,25.0,19.0,30.06,WNW,290,13.0,21.0,79,0.00,,,-99.99,,2013-01-14 06:52:00,
2013-01-14 02:01:00,25.0,19.0,30.06,WNW,290,13.0,21.0,79,0.00,,,-99.99,,2013-01-14 07:01:00,
2013-01-14 02:11:00,25.0,19.0,30.07,West,280,12.0,24.0,79,0.00,,,-99.99,,2013-01-14 07:11:00,
2013-01-14 02:22:00,25.0,19.0,30.08,West,280,16.0,24.0,79,0.00,,,-99.99,,2013-01-14 07:22:00,
2013-01-14 02:32:00,25.0,19.0,30.09,West,280,17.0,24.0,79,0.00,,,-99.99,,2013-01-14 07:32:00,
2013-01-14 02:42:00,25.0,18.0,30.09,West,280,12.0,21.0,73,0.00,,,-99.99,,2013-01-14 07:42:00,
2013-01-14 02:52:00,23.0,16.0,30.11,West,270,16.0,27.0,73,0.00,,,-99.99,,2013-01-14 07:52:00,
2013-01-14 03:01:00,23.0,16.0,30.11,West,270,16.0,27.0,73,0.00,,,-99.99,,2013-01-14 08:01:00,
2013-01-14 03:11:00,23.0,16.0,30.12,West,260,15.0,24.0,73,0.00,,,-99.99,,2013-01-14 08:11:00,
2013-01-14 03:21:00,21.0,16.0,30.13,West,260,12.0,18.0,79,0.00,,,-99.99,,2013-01-14 08:21:00,
2013-01-14 03:32:00,21.0,16.0,30.13,West,270,12.0,17.0,79,0.00,,,-99.99,,2013-01-14 08:32:00,
2013-01-14 03:42:00,21.0,16.0,30.14,West,270,10.0,17.0,79,0.00,,,-99.99,,2013-01-14 08:42:00,
2013-01-14 03:52:00,21.0,16.0,30.14,West,280,15.0,17.0,79,0.00,,,-99.99,,2013-01-14 08:52:00,
2013-01-14 04:02:00,21.0,16.0,30.14,West,280,15.0,17.0,79,0.00,,,-99.99,,2013-01-14 09:02:00,
2013-01-14 04:11:00,21.0,16.0,30.15,WSW,250,8.0,18.0,79,0.00,,,-99.99,,2013-01-14 09:11:00,
2013-01-14 04:21:00,21.0,18.0,30.17,West,280,8.0,17.0,85,0.00,,,-99.99,,2013-01-14 09:21:00,
2013-01-14 04:32:00,21.0,18.0,30.17,WNW,290,12.0,-999.0,85,0.00,,,-99.99,,2013-01-14 09:32:00,
2013-01-14 04:42:00,21.0,18.0,30.17,West,280,12.0,-999.0,85,0.00,,,-99.99,,2013-01-14 09:42:00,
2013-01-14 04:52:00,21.0,18.0,30.18,West,270,12.0,16.0,85,0.00,,,-99.99,,2013-01-14 09:52:00,
2013-01-14 05:01:00,21.0,18.0,30.18,West,270,12.0,16.0,85,0.00,,,-99.99,,2013-01-14 10:01:00,
2013-01-14 05:11:00,21.0,16.0,30.19,West,280,9.0,-999.0,79,0.00,,,-99.99,,2013-01-14 10:11:00,
2013-01-14 05:22:00,21.0,16.0,30.20,West,280,9.0,-999.0,79,0.00,,,-99.99,,2013-01-14 10:22:00,
2013-01-14 05:32:00,21.0,16.0,30.20,West,280,9.0,-999.0,79,0.00,,,-99.99,,2013-01-14 10:32:00,
2013-01-14 05:42:00,21.0,16.0,30.21,West,270,10.0,-999.0,79,0.00,,,-99.99,,2013-01-14 10:42:00,
2013-01-14 05:52:00,21.0,16.0,30.21,West,280,10.0,-999.0,79,0.00,,,-99.99,,2013-01-14 10:52:00,
2013-01-14 06:01:00,21.0,16.0,30.21,West,280,10.0,-999.0,79,0.00,,,-99.99,,2013-01-14 11:01:00,
2013-01-14 06:11:00,21.0,16.0,30.22,West,280,12.0,-999.0,79,0.00,,,-99.99,,2013-01-14 11:11:00,
2013-01-14 06:22:00,21.0,16.0,30.23,WNW,290,10.0,16.0,79,0.00,,,-99.99,,2013-01-14 11:22:00,
2013-01-14 06:32:00,21.0,16.0,30.24,West,280,7.0,17.0,79,0.00,,,-99.99,,2013-01-14 11:32:00,
2013-01-14 06:42:00,21.0,16.0,30.24,West,280,8.0,17.0,79,0.00,,,-99.99,,2013-01-14 11:42:00,
2013-01-14 06:52:00,21.0,16.0,30.25,West,280,8.0,-999.0,79,0.00,,,-99.99,,2013-01-14 11:52:00,
2013-01-14 07:02:00,21.0,16.0,30.25,West,280,8.0,-999.0,79,0.00,,,-99.99,,2013-01-14 12:02:00,
2013-01-14 07:11:00,21.0,18.0,30.27,West,280,6.0,-999.0,85,0.00,,,0.00,,2013-01-14 12:11:00,
2013-01-14 07:22:00,21.0,16.0,30.27,West,280,6.0,-999.0,79,0.00,,,0.00,,2013-01-14 12:22:00,
2013-01-14 07:32:00,21.0,16.0,30.27,WNW,290,7.0,-999.0,79,0.00,,,0.00,,2013-01-14 12:32:00,
2013-01-14 07:42:00,21.0,16.0,30.27,NW,310,9.0,-999.0,79,0.00,,,0.00,,2013-01-14 12:42:00,
2013-01-14 07:52:00,19.0,14.0,30.29,WNW,290,8.0,-999.0,79,0.00,,,0.00,,2013-01-14 12:52:00,
2013-01-14 08:02:00,19.0,14.0,30.29,WNW,290,8.0,-999.0,79,0.00,,,0.00,,2013-01-14 13:02:00,
2013-01-14 08:11:00,19.0,12.0,30.30,WNW,290,9.0,-999.0,73,0.00,,,-99.99,,2013-01-14 13:11:00,
2013-01-14 08:21:00,19.0,12.0,30.31,WNW,290,7.0,-999.0,73,0.00,,,-99.99,,2013-01-14 13:21:00,
2013-01-14 08:32:00,19.0,10.0,30.31,West,280,8.0,-999.0,67,0.00,,,-99.99,,2013-01-14 13:32:00,
2013-01-14 08:42:00,19.0,10.0,30.31,West,280,8.0,-999.0,67,0.00,,,-99.99,,2013-01-14 13:42:00,
2013-01-14 08:52:00,19.0,10.0,30.31,West,280,8.0,-999.0,67,0.00,,,-99.99,,2013-01-14 13:52:00,
2013-01-14 09:02:00,19.0,10.0,30.31,West,280,8.0,-999.0,67,0.00,,,-99.99,,2013-01-14 14:02:00,
2013-01-14 09:11:00,19.0,10.0,30.31,West,280,8.0,-999.0,67,0.00,,,-99.99,,2013-01-14 14:11:00,
2013-01-14 09:32:00,19.0,12.0,30.35,West,280,8.0,-999.0,73,0.00,,,-99.99,,2013-01-14 14:32:00,
2013-01-14 09:42:00,19.0,12.0,30.36,West,280,9.0,-999.0,73,0.00,,,-99.99,,2013-01-14 14:42:00,
2013-01-14 09:52:00,19.0,12.0,30.36,West,280,12.0,16.0,73,0.00,,,-99.99,,2013-01-14 14:52:00,
2013-01-14 10:02:00,19.0,12.0,30.36,West,280,12.0,16.0,73,0.00,,,-99.99,,2013-01-14 15:02:00,
2013-01-14 10:11:00,21.0,12.0,30.37,West,270,10.0,17.0,67,0.00,,,-99.99,,2013-01-14 15:11:00,
2013-01-14 10:22:00,21.0,10.0,30.37,WNW,290,9.0,18.0,62,0.00,,,-99.99,,2013-01-14 15:22:00,
2013-01-14 10:32:00,21.0,10.0,30.36,West,280,9.0,18.0,62,0.00,,,-99.99,,2013-01-14 15:32:00,
2013-01-14 10:42:00,21.0,10.0,30.36,WNW,290,12.0,17.0,62,0.00,,,-99.99,,2013-01-14 15:42:00,
2013-01-14 10:52:00,21.0,10.0,30.36,West,280,16.0,22.0,62,0.00,,,-99.99,,2013-01-14 15:52:00,
2013-01-14 11:02:00,21.0,10.0,30.36,West,280,16.0,22.0,62,0.00,,,-99.99,,2013-01-14 16:02:00,
2013-01-14 11:11:00,21.0,12.0,30.36,WNW,290,12.0,18.0,67,0.00,,,-99.99,,2013-01-14 16:11:00,
2013-01-14 11:22:00,23.0,12.0,30.36,NW,310,12.0,-999.0,62,0.00,,,-99.99,,2013-01-14 16:22:00,
2013-01-14 11:32:00,23.0,12.0,30.36,WNW,290,10.0,17.0,62,0.00,,,-99.99,,2013-01-14 16:32:00,
2013-01-14 11:42:00,23.0,12.0,30.36,WNW,290,9.0,17.0,62,0.00,,,-99.99,,2013-01-14 16:42:00,
2013-01-14 11:52:00,23.0,12.0,30.35,WNW,300,9.0,16.0,62,0.00,,,-99.99,,2013-01-14 16:52:00,
2013-01-14 12:02:00,23.0,12.0,30.35,WNW,300,9.0,16.0,62,0.00,,,-99.99,,2013-01-14 17:02:00,
2013-01-14 12:11:00,25.0,12.0,30.34,West,280,8.0,-999.0,58,0.00,,,-99.99,,2013-01-14 17:11:00,
2013-01-14 12:22:00,25.0,12.0,30.34,West,280,8.0,-999.0,58,0.00,,,-99.99,,2013-01-14 17:22:00,
2013-01-14 12:32:00,25.0,12.0,30.33,West,280,9.0,-999.0,58,0.00,,,-99.99,,2013-01-14 17:32:00,
2013-01-14 12:42:00,25.0,14.0,30.32,West,270,12.0,-999.0,63,0.00,,,-99.99,,2013-01-14 17:42:00,
2013-01-14 12:52:00,25.0,14.0,30.33,WSW,250,8.0,-999.0,63,0.00,,,-99.99,,2013-01-14 17:52:00,
2013-01-14 13:02:00,25.0,14.0,30.33,WSW,250,8.0,-999.0,63,0.00,,,-99.99,,2013-01-14 18:02:00,
2013-01-14 13:12:00,25.0,14.0,30.32,West,280,5.0,-999.0,63,0.00,,,-99.99,,2013-01-14 18:12:00,
2013-01-14 13:22:00,27.0,16.0,30.32,WNW,290,9.0,-999.0,63,0.00,,,-99.99,,2013-01-14 18:22:00,
2013-01-14 13:32:00,27.0,14.0,30.33,NW,310,7.0,-999.0,58,0.00,,,-99.99,,2013-01-14 18:32:00,
2013-01-14 13:42:00,27.0,14.0,30.33,West,280,5.0,-999.0,58,0.00,,,-99.99,,2013-01-14 18:42:00,
2013-01-14 13:52:00,27.0,14.0,30.33,West,280,8.0,-999.0,58,0.00,,,-99.99,,2013-01-14 18:52:00,
2013-01-14 14:02:00,27.0,14.0,30.33,West,280,8.0,-999.0,58,0.00,,,-99.99,,2013-01-14 19:02:00,
2013-01-14 14:11:00,27.0,14.0,30.33,North,0,0.0,-999.0,58,0.00,,,-99.99,,2013-01-14 19:11:00,
2013-01-14 14:21:00,27.0,16.0,30.32,West,260,10.0,-999.0,63,0.00,,,-99.99,,2013-01-14 19:21:00,
2013-01-14 14:32:00,27.0,14.0,30.33,West,280,6.0,-999.0,58,0.00,,,-99.99,,2013-01-14 19:32:00,
2013-01-14 14:42:00,27.0,16.0,30.33,West,280,5.0,-999.0,63,0.00,,,-99.99,,2013-01-14 19:42:00,
2013-01-14 14:52:00,27.0,14.0,30.34,North,0,0.0,-999.0,58,0.00,,,-99.99,,2013-01-14 19:52:00,
2013-01-14 15:02:00,27.0,14.0,30.34,North,0,0.0,-999.0,58,0.00,,,-99.99,,2013-01-14 20:02:00,
2013-01-14 15:11:00,27.0,14.0,30.34,WNW,290,5.0,-999.0,58,0.00,,,-99.99,,2013-01-14 20:11:00,
2013-01-14 15:22:00,27.0,16.0,30.36,West,270,7.0,-999.0,63,0.00,,,-99.99,,2013-01-14 20:22:00,
2013-01-14 15:32:00,27.0,16.0,30.36,WSW,240,6.0,-999.0,63,0.00,,,-99.99,,2013-01-14 20:32:00,
2013-01-14 15:42:00,25.0,16.0,30.37,SW,230,6.0,-999.0,68,0.00,,,-99.99,,2013-01-14 20:42:00,
2013-01-14 15:52:00,27.0,16.0,30.38,West,270,6.0,-999.0,63,0.00,,,-99.99,,2013-01-14 20:52:00,
2013-01-14 16:02:00,27.0,16.0,30.38,West,270,6.0,-999.0,63,0.00,,,-99.99,,2013-01-14 21:02:00,
2013-01-14 16:11:00,27.0,16.0,30.37,WNW,290,7.0,-999.0,63,0.00,,,-99.99,,2013-01-14 21:11:00,
2013-01-14 16:22:00,27.0,16.0,30.38,West,270,6.0,-999.0,63,0.00,,,-99.99,,2013-01-14 21:22:00,
2013-01-14 16:32:00,27.0,16.0,30.39,West,270,7.0,-999.0,63,0.00,,,-99.99,,2013-01-14 21:32:00,
2013-01-14 16:42:00,27.0,16.0,30.38,West,280,6.0,-999.0,63,0.00,,,-99.99,,2013-01-14 21:42:00,
2013-01-14 16:52:00,27.0,16.0,30.38,WNW,290,6.0,-999.0,63,0.00,,,-99.99,,2013-01-14 21:52:00,
2013-01-14 17:02:00,27.0,16.0,30.38,West,270,6.0,-999.0,63,0.00,,,-99.99,,2013-01-14 22:02:00,
2013-01-14 17:11:00,27.0,16.0,30.38,West,270,5.0,-999.0,63,0.00,,,-99.99,,2013-01-14 22:11:00,
2013-01-14 17:22:00,25.0,16.0,30.38,West,280,5.0,-999.0,68,0.00,,,-99.99,,2013-01-14 22:22:00,
2013-01-14 17:32:00,25.0,16.0,30.39,West,270,5.0,-999.0,68,0.00,,,-99.99,,2013-01-14 22:32:00,
2013-01-14 17:42:00,25.0,16.0,30.39,West,260,5.0,-999.0,68,0.00,,,-99.99,,2013-01-14 22:42:00,
2013-01-14 17:52:00,23.0,14.0,30.39,WSW,250,5.0,-999.0,67,0.00,,,-99.99,,2013-01-14 22:52:00,
2013-01-14 18:02:00,23.0,14.0,30.39,WSW,250,5.0,-999.0,67,0.00,,,-99.99,,2013-01-14 23:02:00,
2013-01-14 18:11:00,23.0,14.0,30.39,West,260,3.0,-999.0,67,0.00,,,-99.99,,2013-01-14 23:11:00,
2013-01-14 18:22:00,21.0,14.0,30.39,North,0,0.0,-999.0,73,0.00,,,-99.99,,2013-01-14 23:22:00,
2013-01-14 18:32:00,21.0,16.0,30.39,North,0,0.0,-999.0,79,0.00,,,-99.99,,2013-01-14 23:32:00,
2013-01-14 18:42:00,21.0,16.0,30.38,North,0,0.0,-999.0,79,0.00,,,-99.99,,2013-01-14 23:42:00,
2013-01-14 18:52:00,19.0,16.0,30.38,North,0,0.0,-999.0,85,0.00,,,-99.99,,2013-01-14 23:52:00,
2013-01-14 19:02:00,19.0,16.0,30.38,North,0,0.0,-999.0,85,0.00,,,-99.99,,2013-01-15 00:02:00,
2013-01-14 19:11:00,19.0,16.0,30.39,North,0,0.0,-999.0,85,0.00,,,-99.99,,2013-01-15 00:11:00,
2013-01-14 19:22:00,18.0,16.0,30.39,North,0,0.0,-999.0,92,0.00,,,-99.99,,2013-01-15 00:22:00,
2013-01-14 19:32:00,18.0,16.0,30.38,North,0,0.0,-999.0,92,0.00,,,-99.99,,2013-01-15 00:32:00,
2013-01-14 19:42:00,18.0,16.0,30.38,North,0,0.0,-999.0,92,0.00,,,-99.99,,2013-01-15 00:42:00,
2013-01-14 19:52:00,18.0,16.0,30.38,North,0,0.0,-999.0,92,0.00,,,-99.99,,2013-01-15 00:52:00,
2013-01-14 20:01:00,18.0,16.0,30.38,North,0,0.0,-999.0,92,0.00,,,-99.99,,2013-01-15 01:01:00,
2013-01-14 20:11:00,18.0,16.0,30.38,North,0,0.0,-999.0,92,0.00,,,-99.99,,2013-01-15 01:11:00,
2013-01-14 20:22:00,18.0,16.0,30.38,North,0,0.0,-999.0,92,0.00,,,-99.99,,2013-01-15 01:22:00,
2013-01-14 20:32:00,18.0,16.0,30.37,North,0,0.0,-999.0,92,0.00,,,-99.99,,2013-01-15 01:32:00,
2013-01-14 20:42:00,16.0,16.0,30.37,North,0,0.0,-999.0,100,0.00,,,-99.99,,2013-01-15 01:42:00,
2013-01-14 20:52:00,16.0,16.0,30.38,North,0,0.0,-999.0,100,0.00,,,-99.99,,2013-01-15 01:52:00,
2013-01-14 21:01:00,16.0,16.0,30.38,North,0,0.0,-999.0,100,0.00,,,-99.99,,2013-01-15 02:01:00,
2013-01-14 21:11:00,16.0,16.0,30.37,North,0,0.0,-999.0,100,0.00,,,-99.99,,2013-01-15 02:11:00,
2013-01-14 21:21:00,16.0,16.0,30.37,North,0,0.0,-999.0,100,0.00,,,-99.99,,2013-01-15 02:21:00,
2013-01-14 21:32:00,16.0,14.0,30.37,North,0,0.0,-999.0,92,0.00,,,-99.99,,2013-01-15 02:32:00,
2013-01-14 21:42:00,16.0,14.0,30.38,North,0,0.0,-999.0,92,0.00,,,-99.99,,2013-01-15 02:42:00,
2013-01-14 21:52:00,14.0,12.0,30.38,North,0,0.0,-999.0,92,0.00,,,-99.99,,2013-01-15 02:52:00,
2013-01-14 22:02:00,14.0,12.0,30.38,North,0,0.0,-999.0,92,0.00,,,-99.99,,2013-01-15 03:02:00,
2013-01-14 22:11:00,14.0,12.0,30.38,North,0,0.0,-999.0,92,0.00,,,-99.99,,2013-01-15 03:11:00,
2013-01-14 22:22:00,16.0,12.0,30.37,North,0,0.0,-999.0,85,0.00,,,-99.99,,2013-01-15 03:22:00,
2013-01-14 22:32:00,14.0,12.0,30.37,North,0,0.0,-999.0,92,0.00,,,-99.99,,2013-01-15 03:32:00,
2013-01-14 22:42:00,14.0,12.0,30.37,North,0,0.0,-999.0,92,0.00,,,-99.99,,2013-01-15 03:42:00,
2013-01-14 22:52:00,14.0,12.0,30.36,North,0,0.0,-999.0,92,0.00,,,-99.99,,2013-01-15 03:52:00,
2013-01-14 23:02:00,14.0,12.0,30.36,North,0,0.0,-999.0,92,0.00,,,-99.99,,2013-01-15 04:02:00,
2013-01-14 23:11:00,12.0,12.0,30.37,North,0,0.0,-999.0,100,0.00,,,-99.99,,2013-01-15 04:11:00,
2013-01-14 23:22:00,12.0,10.0,30.38,North,0,0.0,-999.0,92,0.00,,,-99.99,,2013-01-15 04:22:00,
2013-01-14 23:32:00,12.0,10.0,30.38,North,0,0.0,-999.0,92,0.00,,,-99.99,,2013-01-15 04:32:00,
2013-01-14 23:42:00,12.0,10.0,30.38,North,0,0.0,-999.0,92,0.00,,,-99.99,,2013-01-15 04:42:00,
2013-01-14 23:52:00,12.0,10.0,30.37,North,0,0.0,-999.0,92,0.00,,,-99.99,,2013-01-15 04:52:00,